Regional Weather Roundup
Issued by NWS

Home | Current Version | Previous Version | Text Only | Print | Product List | Glossary On
Versions: 1 2 3 4 5 6 7 8 9 10 11 12 13 14 15 16 17 18 19 20 21 22 23 24 25 26
000
ASUS45 KTFX 242210
RWRMT
MONTANA REGIONAL WEATHER ROUNDUP
NATIONAL WEATHER SERVICE GREAT FALLS MT
400 PM MDT TUE APR 24 2018

NOTE: "FAIR" INDICATES FEW OR NO CLOUDS BELOW 12000 FEET WITH NO
SIGNIFICANT WEATHER AND/OR OBSTRUCTIONS TO VISIBILITY.

MTZ001>007-043-242300-
WEST OF THE DIVIDE

CITY           SKY/WX    TMP DP  RH WIND       PRES   REMARKS
KALISPELL      FAIR      61  22  22 VRB3      30.30F
MISSOULA       FAIR      63  28  26 VRB3      30.31F
BUTTE          FAIR      52  24  33 S6        30.38F
MULLAN PASS    FAIR      53  12  19 VRB3      30.34F
ANACONDA         N/A     57  14  18 SE6       30.35F
DEER LODGE       N/A     61  16  17 SW7       30.36F
HAMILTON         N/A     63  19  19 MISG      30.32F
RONAN            N/A     61  23  23 CALM      30.33F
$$

MTZ008-052>055-242300-
SOUTHWEST MONTANA

CITY           SKY/WX    TMP DP  RH WIND       PRES   REMARKS
BOZEMAN        FAIR      53  30  41 N5        30.40F
DILLON         FAIR      50  25  37 CALM      30.39F
ENNIS          SUNNY     50  27  40 VRB5      30.43F
W YELLOWSTONE  FAIR      45  16  31 CALM      30.38F
THREE FORKS      N/A     53  25  34 SE6       30.35F
$$

MTZ009-010-012-014-046-048-049-054-242300-
EAST SLOPES AND CENTRAL MONTANA

CITY           SKY/WX    TMP DP  RH WIND       PRES   REMARKS
CUT BANK       FAIR      68   3   7 SW14      30.22F
GREAT FALLS    FAIR      64  26  23 S17G29    30.29F
HELENA         FAIR      61  28  28 E17       30.34F
CHOTEAU          N/A     66   5   9 S18       30.27F
WHITE SULPHUR    N/A     50  21  32 S13       30.38F
$$

MTZ011-013-016-021-045-047-050-051-242300-
NORTH CENTRAL MONTANA

CITY           SKY/WX    TMP DP  RH WIND       PRES   REMARKS
HAVRE          FAIR      66  20  17 SW17G29   30.26F
LEWISTOWN      FAIR      56  27  32 VRB7      30.34F
N BAR RANCH    FAIR      54  27  35 SW20G28   30.37F
CHINOOK          N/A     66  23  19 W8        30.27F
$$

MTZ017>020-022>027-061-062-242300-
NORTHEAST MONTANA

CITY           SKY/WX    TMP DP  RH WIND       PRES   REMARKS
GLASGOW        FAIR      63  24  22 S12       30.33F
GLENDIVE       FAIR      57  32  38 S13       30.39
JORDAN           N/A     59  27  29 SW10      30.36F
MALTA          SUNNY     63  30  29 S12G21    30.29F
SIDNEY         FAIR      60  28  29 W9        30.37F
WOLF POINT     FAIR      64  24  21 W9        30.35F
PLENTYWOOD       N/A     61  23  23 MISG      30.32F
SCOBEY           N/A     62  23  22 SW10      30.29F VSB 0
$$

MTZ028>42-056>058-242300-
SOUTHCENTRAL AND SOUTHEAST MONTANA

CITY           SKY/WX    TMP DP  RH WIND       PRES   REMARKS
BAKER          FAIR      49  30  48 SW12      30.43F
BILLINGS       FAIR      53  23  31 S6        30.42F
LIVINGSTON     FAIR      52  29  41 W6        30.40F
MILES CITY     FAIR      55  32  41 W12       30.41F
BIG TIMBER     SUNNY     46  32  57 VRB6      30.42F
EKALAKA          N/A     45  25  45 W6        30.37F
FORSYTH          N/A     54  27  35 SW9       30.41F
ROUNDUP          N/A     55  24  30 S13       30.27F
$$

REGIONAL REPORTS...DAKOTAS

CITY           SKY/WX    TMP DP  RH WIND       PRES   REMARKS
WILLISTON      FAIR      62  26  25 SW14      30.36F
MINOT          FAIR      60  16  18 NW3G17    30.35F
DICKINSON      FAIR      55  20  25 CALM      30.37F
BEACH          FAIR      54  27  35 VRB7G15   30.43F
CROSBY         FAIR      61  23  23 W8G18     30.34F
TIOGA          FAIR      57  23  26 W10G17    30.37F
WATFORD CITY   FAIR      59  23  25 NW8       30.37F
BISMARCK       FAIR      58  26  29 NW8       30.39F
GRAND FORKS    FAIR      53  29  39 N20G28    30.35S
FARGO          FAIR      54  29  38 N23G32    30.33F
BUFFALO SD       N/A     53  22  29 W9        30.36F
RAPID CITY     PTSUNNY   50  26  39 N20G25    30.42F
$$

REGIONAL REPORTS...WYOMING/IDAHO/WASHINGTON

CITY           SKY/WX    TMP DP  RH WIND       PRES   REMARKS
GILLETTE       FAIR      48  27  44 N10       30.43F
SHERIDAN       FAIR      51  25  36 VRB3      30.43F
BUFFALO WY     FAIR      47  20  34 CALM      30.43F
CODY           FAIR      49  19  30 VRB7      30.42F
YELLOWSTONE LA   N/A     39   9  29 E6        30.44F
IDAHO FALLS    FAIR      57  33  40 NE12      30.35F
SALMON         FAIR      61  20  20 N5        30.33F
BOISE          FAIR      66  33  29 SE9       30.26F
SPOKANE        PTSUNNY   66  27  23 VRB6      30.25F
$$

REGIONAL REPORTS...ALBERTA

CITY           SKY/WX    TMP DP  RH WIND       PRES   REMARKS
CALGARY        CLOUDY    68   9  10 W10       30.11F
EDMONTON       SUNNY     68  23  18 W8        30.03F
FORT MCMURRAY  PTSUNNY   66  25  20 W28G38    29.85F
HIGH LEVEL     PTSUNNY   59  25  27 NW13G26   29.90S
LETHBRIDGE     PTSUNNY   73  14  10 W20       30.14F
LLOYDMINSTER   PTSUNNY   70  25  18 W16G28    30.04F
MEDICINE HAT   PTSUNNY   72  16  12 SW23G29   30.16F
MILK RIVER       N/A     72  14  11 S18G26      N/A
PEACE RIVER    CLOUDY    55  30  38 W15       30.01S
PINCHER CREEK  MOSUNNY   64  21  19 SW18G28   30.20F
WATERTON GATE    N/A     63  18  17 SW20G32     N/A
$$

REGIONAL REPORTS...SASKATCHEWAN

CITY           SKY/WX    TMP DP  RH WIND       PRES   REMARKS
CORONACH         N/A     63  21  20 SW13G20     N/A
MOOSE JAW        N/A     66  19  16 SW17G25     N/A
PRINCE ALBERT  PTSUNNY   66  28  24 SW18G26   30.08F
REGINA         MOSUNNY   64  21  19 W15G24    30.25F
ROCKGLEN         N/A     61  21  21 SW15G22     N/A
SASKATOON      PTSUNNY   70  23  17 SW21G28   30.14F
SWIFT CURRENT  SUNNY     64  25  22 SW17G29   30.22F
VAL MARIE        N/A     63  19  19 SW15G22     N/A
$$




USA.gov is the U.S. government's official web portal to all federal, state and local government web resources and services.